| time (UTC) | temp F | wind direction | speed MPH | gust MPH | rain 1hr in | rain 24hr in | rain mn in | humidity % | barometer mb |
| 20260906044025 | 71 | 357 | 2.0 | 2.0 | 0.00 | 0.00 | 0.00 | 60 | 1017.7 |
| 20260906043018 | 69 | 301 | 2.0 | 2.0 | 0.00 | 0.00 | 0.00 | 63 | 1017.6 |
| 20260906042026 | 69 | 301 | 2.0 | 3.0 | 0.00 | 0.00 | 0.00 | 63 | 1017.6 |
| 20260906041018 | 70 | 292 | 2.0 | 3.0 | 0.00 | 0.00 | 0.00 | 63 | 1017.5 |
| 20260906040025 | 71 | 292 | 1.0 | 2.0 | 0.00 | 0.00 | 0.00 | 62 | 1017.4 |
| 20260906035019 | 72 | 293 | 1.0 | 1.0 | 0.00 | 0.00 | 0.00 | 60 | 1017.3 |
| 20260906034027 | 71 | 293 | 1.0 | 2.0 | 0.00 | 0.00 | 0.00 | 60 | 1017.2 |
| 20260906033019 | 71 | 293 | 1.0 | 2.0 | 0.00 | 0.00 | 0.00 | 61 | 1017.3 |
| 20260906032047 | 70 | 0.0 | 0.0 | 0.00 | 0.00 | 0.00 | 62 | 1017.2 | |
| 20260906031039 | 70 | 301 | 0.0 | 1.0 | 0.00 | 0.00 | 0.00 | 61 | 1017.2 |
| 20260906030027 | 72 | 291 | 1.0 | 2.0 | 0.00 | 0.00 | 0.00 | 59 | 1017.2 |
| 20260906025019 | 74 | 283 | 1.0 | 2.0 | 0.00 | 0.00 | 0.00 | 57 | 1017.2 |
| 20260906024027 | 73 | 359 | 1.0 | 2.0 | 0.00 | 0.00 | 0.00 | 59 | 1017.2 |
| 20260906023019 | 71 | 315 | 3.0 | 3.0 | 0.00 | 0.00 | 0.00 | 63 | 1017.2 |
| 20260906022027 | 71 | 296 | 2.0 | 3.0 | 0.00 | 0.00 | 0.00 | 64 | 1017.2 |
| 20260906021019 | 72 | 285 | 2.0 | 3.0 | 0.00 | 0.00 | 0.00 | 62 | 1017.2 |
| 20260906020048 | 70 | 307 | 2.0 | 3.0 | 0.00 | 0.00 | 0.00 | 65 | 1017.2 |
| 20260906015018 | 70 | 293 | 2.0 | 3.0 | 0.00 | 0.00 | 0.00 | 65 | 1017.2 |
| 20260906014027 | 70 | 303 | 2.0 | 3.0 | 0.00 | 0.00 | 0.00 | 66 | 1017.1 |
| 20260906013019 | 70 | 305 | 2.0 | 3.0 | 0.00 | 0.00 | 0.00 | 64 | 1017.2 |
| 20260906012027 | 71 | 296 | 2.0 | 2.0 | 0.00 | 0.00 | 0.00 | 63 | 1017.2 |
| 20260906011019 | 70 | 318 | 2.0 | 2.0 | 0.00 | 0.00 | 0.00 | 65 | 1017.3 |
| 20260906010027 | 71 | 319 | 2.0 | 3.0 | 0.00 | 0.00 | 0.00 | 62 | 1017.3 |
| 20260906005019 | 72 | 282 | 2.0 | 3.0 | 0.00 | 0.00 | 0.00 | 62 | 1017.2 |
| 20260906004027 | 71 | 291 | 1.0 | 2.0 | 0.00 | 0.00 | 0.00 | 63 | 1017.2 |
| 20260906003039 | 73 | 245 | 1.0 | 2.0 | 0.00 | 0.00 | 0.00 | 61 | 1017.2 |
| 20260906002027 | 73 | 263 | 1.0 | 2.0 | 0.00 | 0.00 | 0.00 | 59 | 1017.2 |
| 20260906001039 | 73 | 261 | 1.0 | 1.0 | 0.00 | 0.00 | 0.00 | 58 | 1017.2 |
| 20260906000027 | 72 | 271 | 1.0 | 2.0 | 0.00 | 0.00 | 0.00 | 60 | 1017.4 |
| 20260905235019 | 71 | 291 | 2.0 | 2.0 | 0.00 | 0.00 | 0.00 | 59 | 1017.5 |
| 20260905234047 | 71 | 297 | 2.0 | 2.0 | 0.00 | 0.00 | 0.00 | 59 | 1017.6 |
| 20260905233020 | 71 | 302 | 3.0 | 3.0 | 0.00 | 0.00 | 0.00 | 58 | 1017.5 |
| 20260905232027 | 72 | 293 | 2.0 | 3.0 | 0.00 | 0.00 | 0.00 | 57 | 1017.6 |
| 20260905231018 | 73 | 294 | 3.0 | 3.0 | 0.00 | 0.00 | 0.00 | 54 | 1017.6 |
| 20260905230027 | 75 | 0.0 | 0.0 | 0.00 | 0.00 | 0.00 | 54 | 1017.6 | |
| 20260905225019 | 75 | 0.0 | 0.0 | 0.00 | 0.00 | 0.00 | 55 | 1017.7 | |
| 20260905224047 | 76 | 283 | 0.0 | 1.0 | 0.00 | 0.00 | 0.00 | 56 | 1017.8 |
| 20260905223019 | 75 | 284 | 1.0 | 2.0 | 0.00 | 0.00 | 0.00 | 57 | 1017.8 |
| 20260905222047 | 75 | 0.0 | 0.0 | 0.00 | 0.00 | 0.00 | 58 | 1017.7 | |
| 20260905221018 | 76 | 0.0 | 0.0 | 0.00 | 0.00 | 0.00 | 57 | 1017.6 | |
| 20260905220027 | 76 | 0.0 | 0.0 | 0.00 | 0.00 | 0.00 | 56 | 1017.7 | |
| 20260905215019 | 76 | 0.0 | 0.0 | 0.00 | 0.00 | 0.00 | 55 | 1017.6 | |
| 20260905214027 | 76 | 0.0 | 0.0 | 0.00 | 0.00 | 0.00 | 54 | 1017.6 | |
| 20260905213019 | 77 | 0.0 | 0.0 | 0.00 | 0.00 | 0.00 | 53 | 1017.6 | |
| 20260905212026 | 77 | 0.0 | 0.0 | 0.00 | 0.00 | 0.00 | 52 | 1017.6 | |
| 20260905211019 | 77 | 0.0 | 0.0 | 0.00 | 0.00 | 0.00 | 50 | 1017.6 | |
| 20260905210027 | 77 | 0.0 | 0.0 | 0.00 | 0.00 | 0.00 | 50 | 1017.6 | |
| 20260905205019 | 77 | 0.0 | 0.0 | 0.00 | 0.00 | 0.00 | 50 | 1017.6 | |
| 20260905204027 | 77 | 0.0 | 0.0 | 0.00 | 0.00 | 0.00 | 49 | 1017.7 | |
| 20260905203019 | 77 | 0.0 | 0.0 | 0.00 | 0.00 | 0.00 | 48 | 1017.7 | |
| 20260905202028 | 77 | 172 | 1.0 | 3.0 | 0.00 | 0.00 | 0.00 | 48 | 1017.8 |
| 20260905201019 | 77 | 210 | 2.0 | 3.0 | 0.00 | 0.00 | 0.00 | 46 | 1017.8 |
| 20260905200027 | 79 | 229 | 0.0 | 1.0 | 0.00 | 0.00 | 0.00 | 47 | 1017.8 |
| 20260905195019 | 79 | 262 | 0.0 | 1.0 | 0.00 | 0.00 | 0.00 | 47 | 1017.9 |
| 20260905194047 | 80 | 0.0 | 0.0 | 0.00 | 0.00 | 0.00 | 47 | 1018.0 | |
| 20260905193059 | 80 | 291 | 0.0 | 2.0 | 0.00 | 0.00 | 0.00 | 46 | 1018.0 |
| 20260905192027 | 81 | 0.0 | 0.0 | 0.00 | 0.00 | 0.00 | 45 | 1017.9 | |
| 20260905191039 | 80 | 0.0 | 0.0 | 0.00 | 0.00 | 0.00 | 46 | 1017.8 | |
| 20260905190027 | 79 | 301 | 1.0 | 2.0 | 0.00 | 0.00 | 0.00 | 47 | 1017.5 |
| 20260905185019 | 79 | 294 | 1.0 | 2.0 | 0.00 | 0.00 | 0.00 | 45 | 1017.4 |
| 20260905184027 | 81 | 294 | 1.0 | 2.0 | 0.00 | 0.00 | 0.00 | 42 | 1017.3 |
| 20260905183019 | 82 | 268 | 2.0 | 3.0 | 0.00 | 0.00 | 0.00 | 42 | 1017.2 |
| 20260905182027 | 82 | 267 | 3.0 | 4.0 | 0.00 | 0.00 | 0.00 | 42 | 1017.1 |
| 20260905181039 | 84 | 278 | 3.0 | 3.0 | 0.00 | 0.00 | 0.00 | 39 | 1017.0 |
| 20260905180027 | 85 | 265 | 2.0 | 2.0 | 0.00 | 0.00 | 0.00 | 38 | 1016.9 |
| 20260905175040 | 85 | 153 | 1.0 | 2.0 | 0.00 | 0.00 | 0.00 | 38 | 1016.7 |
| 20260905174025 | 86 | 152 | 1.0 | 2.0 | 0.00 | 0.00 | 0.00 | 37 | 1016.7 |
| 20260905173037 | 86 | 152 | 1.0 | 1.0 | 0.00 | 0.00 | 0.00 | 37 | 1016.7 |
| 20260905172025 | 87 | 0.0 | 0.0 | 0.00 | 0.00 | 0.00 | 36 | 1016.7 | |
| 20260905171017 | 88 | 151 | 0.0 | 1.0 | 0.00 | 0.00 | 0.00 | 35 | 1016.5 |
| 20260905170025 | 88 | 156 | 2.0 | 3.0 | 0.00 | 0.00 | 0.00 | 34 | 1016.5 |
| 20260905165017 | 89 | 169 | 3.0 | 3.0 | 0.00 | 0.00 | 0.00 | 32 | 1016.5 |
| 20260905164046 | 90 | 172 | 3.0 | 4.0 | 0.00 | 0.00 | 0.00 | 32 | 1016.5 |
| 20260905163017 | 91 | 184 | 5.0 | 7.0 | 0.00 | 0.00 | 0.00 | 31 | 1016.7 |
| 20260905162024 | 91 | 172 | 4.0 | 7.0 | 0.00 | 0.00 | 0.00 | 31 | 1016.7 |
| 20260905161017 | 92 | 200 | 4.0 | 7.0 | 0.00 | 0.00 | 0.00 | 29 | 1016.6 |
| 20260905160025 | 92 | 182 | 6.0 | 9.0 | 0.00 | 0.00 | 0.00 | 30 | 1016.5 |
| 20260905155017 | 92 | 193 | 6.0 | 9.0 | 0.00 | 0.00 | 0.00 | 29 | 1016.7 |
| 20260905154026 | 92 | 194 | 8.0 | 10.0 | 0.00 | 0.00 | 0.00 | 29 | 1016.6 |
| 20260905153037 | 93 | 216 | 5.0 | 9.0 | 0.00 | 0.00 | 0.00 | 29 | 1016.5 |
| 20260905152025 | 93 | 191 | 7.0 | 10.0 | 0.00 | 0.00 | 0.00 | 28 | 1016.6 |
| 20260905151018 | 93 | 205 | 7.0 | 10.0 | 0.00 | 0.00 | 0.00 | 28 | 1016.6 |
| 20260905150025 | 93 | 236 | 8.0 | 11.0 | 0.00 | 0.00 | 0.00 | 28 | 1016.6 |
| 20260905145018 | 93 | 233 | 8.0 | 13.0 | 0.00 | 0.00 | 0.00 | 29 | 1016.8 |
| 20260905144026 | 93 | 242 | 8.0 | 13.0 | 0.00 | 0.00 | 0.00 | 29 | 1016.9 |
| 20260905143017 | 93 | 234 | 9.0 | 14.0 | 0.00 | 0.00 | 0.00 | 28 | 1016.8 |
| 20260905142025 | 94 | 235 | 8.0 | 13.0 | 0.00 | 0.00 | 0.00 | 27 | 1016.9 |
| 20260905141037 | 93 | 238 | 9.0 | 13.0 | 0.00 | 0.00 | 0.00 | 27 | 1017.0 |
| 20260905140025 | 94 | 225 | 8.0 | 14.0 | 0.00 | 0.00 | 0.00 | 27 | 1016.9 |
| 20260905135017 | 94 | 232 | 9.0 | 14.0 | 0.00 | 0.00 | 0.00 | 27 | 1016.9 |
| 20260905134045 | 94 | 240 | 8.0 | 13.0 | 0.00 | 0.00 | 0.00 | 26 | 1017.0 |
| 20260905133017 | 93 | 240 | 10.0 | 15.0 | 0.00 | 0.00 | 0.00 | 27 | 1017.2 |
| 20260905132025 | 94 | 245 | 12.0 | 17.0 | 0.00 | 0.00 | 0.00 | 27 | 1017.2 |
| 20260905131057 | 94 | 231 | 10.0 | 14.0 | 0.00 | 0.00 | 0.00 | 27 | 1017.2 |
| 20260905130025 | 94 | 225 | 10.0 | 16.0 | 0.00 | 0.00 | 0.00 | 27 | 1017.2 |
| 20260905125018 | 93 | 246 | 11.0 | 16.0 | 0.00 | 0.00 | 0.00 | 27 | 1017.3 |
| 20260905124025 | 94 | 233 | 11.0 | 16.0 | 0.00 | 0.00 | 0.00 | 27 | 1017.3 |
| 20260905123017 | 94 | 222 | 10.0 | 15.0 | 0.00 | 0.00 | 0.00 | 27 | 1017.4 |
| 20260905122025 | 94 | 232 | 10.0 | 15.0 | 0.00 | 0.00 | 0.00 | 27 | 1017.5 |
| 20260905121017 | 94 | 228 | 11.0 | 16.0 | 0.00 | 0.00 | 0.00 | 27 | 1017.6 |
| 20260905120026 | 94 | 238 | 8.0 | 13.0 | 0.00 | 0.00 | 0.00 | 26 | 1017.6 |
| 20260905115017 | 94 | 239 | 11.0 | 16.0 | 0.00 | 0.00 | 0.00 | 26 | 1017.6 |
| 20260905114025 | 94 | 251 | 11.0 | 15.0 | 0.00 | 0.00 | 0.00 | 26 | 1017.6 |
| 20260905113037 | 93 | 251 | 8.0 | 15.0 | 0.00 | 0.00 | 0.00 | 27 | 1017.6 |
| 20260905112025 | 93 | 261 | 9.0 | 15.0 | 0.00 | 0.00 | 0.00 | 27 | 1017.6 |
| 20260905111037 | 93 | 235 | 10.0 | 15.0 | 0.00 | 0.00 | 0.00 | 27 | 1017.6 |
| 20260905110045 | 93 | 231 | 10.0 | 15.0 | 0.00 | 0.00 | 0.00 | 27 | 1017.6 |
| 20260905105017 | 93 | 243 | 10.0 | 15.0 | 0.00 | 0.00 | 0.00 | 28 | 1017.7 |
| 20260905104025 | 94 | 269 | 8.0 | 14.0 | 0.00 | 0.00 | 0.00 | 27 | 1017.7 |
| 20260905103017 | 94 | 172 | 7.0 | 13.0 | 0.00 | 0.00 | 0.00 | 29 | 1017.8 |
| 20260905102025 | 94 | 151 | 4.0 | 6.0 | 0.00 | 0.00 | 0.00 | 26 | 1017.9 |
| 20260905101017 | 95 | 52 | 2.0 | 6.0 | 0.00 | 0.00 | 0.00 | 26 | 1018.0 |
| 20260905100045 | 94 | 25 | 3.0 | 6.0 | 0.00 | 0.00 | 0.00 | 26 | 1018.0 |
| 20260905095017 | 94 | 149 | 2.0 | 6.0 | 0.00 | 0.00 | 0.00 | 26 | 1018.0 |
| 20260905094025 | 93 | 324 | 3.0 | 6.0 | 0.00 | 0.00 | 0.00 | 27 | 1018.2 |
| 20260905093017 | 92 | 97 | 4.0 | 7.0 | 0.00 | 0.00 | 0.00 | 27 | 1018.2 |
| 20260905092025 | 92 | 79 | 3.0 | 6.0 | 0.00 | 0.00 | 0.00 | 27 | 1018.4 |
| 20260905091017 | 92 | 55 | 3.0 | 4.0 | 0.00 | 0.00 | 0.00 | 27 | 1018.4 |
| 20260905090026 | 92 | 87 | 3.0 | 6.0 | 0.00 | 0.00 | 0.00 | 28 | 1018.4 |
| 20260905085017 | 95 | 76 | 2.0 | 7.0 | 0.00 | 0.00 | 0.00 | 27 | 1018.5 |
| 20260905084027 | 93 | 319 | 1.0 | 2.0 | 0.00 | 0.00 | 0.00 | 28 | 1018.6 |
| 20260905083017 | 91 | 3 | 1.0 | 4.0 | 0.00 | 0.00 | 0.00 | 29 | 1018.6 |
| 20260905082025 | 91 | 42 | 3.0 | 6.0 | 0.00 | 0.00 | 0.00 | 29 | 1018.6 |
| 20260905081017 | 91 | 90 | 2.0 | 4.0 | 0.00 | 0.00 | 0.00 | 30 | 1018.4 |
| 20260905080025 | 90 | 81 | 1.0 | 2.0 | 0.00 | 0.00 | 0.00 | 30 | 1018.2 |
| 20260905075017 | 89 | 113 | 1.0 | 3.0 | 0.00 | 0.00 | 0.00 | 31 | 1018.2 |
| 20260905074025 | 88 | 341 | 2.0 | 4.0 | 0.00 | 0.00 | 0.00 | 32 | 1018.1 |
| 20260905073017 | 88 | 49 | 1.0 | 3.0 | 0.00 | 0.00 | 0.00 | 31 | 1018.2 |
| 20260905072025 | 88 | 347 | 2.0 | 4.0 | 0.00 | 0.00 | 0.00 | 31 | 1018.1 |
| 20260905071017 | 87 | 67 | 1.0 | 3.0 | 0.00 | 0.00 | 0.00 | 32 | 1018.0 |
| 20260905070025 | 86 | 288 | 2.0 | 3.0 | 0.00 | 0.00 | 0.00 | 32 | 1018.0 |
| 20260905065017 | 85 | 299 | 2.0 | 4.0 | 0.00 | 0.00 | 0.00 | 34 | 1018.1 |
| 20260905064025 | 84 | 299 | 3.0 | 4.0 | 0.00 | 0.00 | 0.00 | 36 | 1018.1 |
| 20260905063017 | 84 | 282 | 3.0 | 6.0 | 0.00 | 0.00 | 0.00 | 37 | 1018.1 |
| 20260905062045 | 83 | 286 | 2.0 | 4.0 | 0.00 | 0.00 | 0.00 | 39 | 1018.1 |
| 20260905061017 | 81 | 295 | 1.0 | 4.0 | 0.00 | 0.00 | 0.00 | 42 | 1018.0 |
| 20260905060025 | 80 | 289 | 3.0 | 7.0 | 0.00 | 0.00 | 0.00 | 43 | 1018.0 |
| 20260905055017 | 78 | 292 | 4.0 | 7.0 | 0.00 | 0.00 | 0.00 | 45 | 1018.0 |
| 20260905054025 | 77 | 279 | 3.0 | 8.0 | 0.00 | 0.00 | 0.00 | 47 | 1017.9 |
| 20260905053017 | 75 | 288 | 3.0 | 6.0 | 0.00 | 0.00 | 0.00 | 49 | 1017.9 |
| 20260905052025 | 74 | 300 | 4.0 | 6.0 | 0.00 | 0.00 | 0.00 | 50 | 1018.0 |
| 20260905051017 | 73 | 297 | 4.0 | 6.0 | 0.00 | 0.00 | 0.00 | 52 | 1017.8 |
| 20260905050025 | 72 | 303 | 4.0 | 4.0 | 0.00 | 0.00 | 0.00 | 54 | 1017.8 |
| 20260905045017 | 72 | 290 | 4.0 | 6.0 | 0.00 | 0.00 | 0.00 | 55 | 1017.8 |